Siemreap, Cambodia

8:55 PM +07 on November 24, 2017 (GMT +0700)
Siem Reap

Weather History for VDSR - September, 2013

Change the Weather History Date:

Saturday, September 7, 2013

  Actual Average Record
Temperature  
Mean Temperature 84 °F -  
Max Temperature 89 °F - - ()
Min Temperature 78 °F - - ()
Cooling Degree Days 18    
Growing Degree Days 34 (Base 50)    
Moisture  
Dew Point 75 °F    
Average Humidity 81    
Maximum Humidity 94    
Minimum Humidity 62    
Precipitation  
Precipitation 0.00 in - - ()
Sea Level Pressure  
Sea Level Pressure 29.80 in    
Wind  
Wind Speed 3 mph ()    
Max Wind Speed 8 mph    
Max Gust Speed -    
Visibility 5.7 miles    
Events Rain , Thunderstorm    
T = Trace of Precipitation, MM = Missing Value Source: Averaged Metar Reports

Daily Weather History Graph

Daily Weather History Graph

Search for Another Location

Airport or City:

Trip Planner

Search our weather history database for the weather conditions in past years. The results will help you decide how hot, cold, wet, or windy it might be!

Date:

Astronomy

Sep. 07, 2013 Rise Set
Actual Time 5:53 AM +07 6:11 PM +07
Civil Twilight 5:32 AM +07 6:33 PM +07
Nautical Twilight 5:07 AM +07 6:57 PM +07
Astronomical Twilight 4:42 AM +07 7:23 PM +07
Moon 7:08 AM +07 (9/7) 7:21 PM +07 (9/7)
Length of Visible Light 13h 00m
Length of Day
12h 18m
Waxing Crescent, 3% of the Moon is Illuminated
Sep 7
Waxing Crescent
Sep 13
First Quarter
Sep 19
Full
Sep 27
Last Quarter
Oct 5
New

Hourly Weather History & Observations

Time (+07) Temp. Heat Index Dew Point Humidity Pressure Visibility Wind Dir Wind Speed Gust Speed Precip Events Conditions
12:00 AM 78.8 °F - 75.2 °F 89% 29.83 in 5.6 mi Calm Calm - N/A Rain Light Rain
12:30 AM 78.8 °F - 77.0 °F 94% 29.83 in 5.6 mi East 4.6 mph - N/A Rain Light Rain
1:00 AM 78.8 °F - 77.0 °F 94% 29.83 in 5.6 mi East 4.6 mph - N/A Rain Light Rain
7:00 AM 78.8 °F - 77.0 °F 94% 29.80 in 6.2 mi Variable 2.3 mph - N/A   Partly Cloudy
7:30 AM 80.6 °F 86.2 °F 75.2 °F 84% 29.83 in 6.2 mi East 3.5 mph - N/A   Partly Cloudy
8:00 AM 80.6 °F 86.2 °F 75.2 °F 84% 29.83 in 6.2 mi Variable 2.3 mph - N/A   Scattered Clouds
8:30 AM 82.4 °F 89.5 °F 75.2 °F 79% 29.83 in 6.2 mi Variable 2.3 mph - N/A   Scattered Clouds
9:00 AM 82.4 °F 89.5 °F 75.2 °F 79% 29.83 in 6.2 mi Variable 2.3 mph - N/A   Scattered Clouds
9:30 AM 82.4 °F 88.2 °F 73.4 °F 74% 29.83 in 6.2 mi Variable 1.2 mph - N/A   Scattered Clouds
10:30 AM 86.0 °F 95.1 °F 75.2 °F 70% 29.86 in 6.2 mi Variable 1.2 mph - N/A   Scattered Clouds
11:00 AM 86.0 °F 93.4 °F 73.4 °F 66% 29.83 in 6.2 mi Variable 3.5 mph - N/A   Partly Cloudy
11:30 AM 86.0 °F 93.4 °F 73.4 °F 66% 29.83 in 6.2 mi Variable 2.3 mph - N/A   Partly Cloudy
12:00 PM 87.8 °F 97.6 °F 75.2 °F 66% 29.83 in 6.2 mi Variable 2.3 mph - N/A   Partly Cloudy
12:30 PM 89.6 °F 99.8 °F 75.2 °F 62% 29.80 in 6.2 mi Variable 2.3 mph - N/A   Partly Cloudy
1:00 PM 87.8 °F 95.6 °F 73.4 °F 62% 29.77 in 6.2 mi Variable 1.2 mph - N/A   Partly Cloudy
1:30 PM 86.0 °F 95.1 °F 75.2 °F 70% - 6.2 mi South 5.8 mph - N/A   Partly Cloudy
2:00 PM 86.0 °F 95.1 °F 75.2 °F 70% 29.74 in 6.2 mi South 5.8 mph - N/A   Partly Cloudy
2:30 PM 87.8 °F 99.7 °F 77.0 °F 70% 29.74 in 6.2 mi SSW 6.9 mph - N/A   Partly Cloudy
3:00 PM 86.0 °F 95.1 °F 75.2 °F 70% 29.71 in 6.2 mi WSW 6.9 mph - N/A   Partly Cloudy
3:30 PM 86.0 °F 95.1 °F 75.2 °F 70% 29.74 in 5.6 mi WNW 8.1 mph - N/A   Scattered Clouds
4:00 PM 80.6 °F 85.4 °F 73.4 °F 79% 29.74 in 5.6 mi NW 8.1 mph - N/A Rain Light Rain
4:30 PM 78.8 °F - 73.4 °F 83% 29.74 in 5.0 mi WNW 4.6 mph - N/A Rain , Thunderstorm Light Thunderstorms and Rain
5:00 PM 80.6 °F 85.4 °F 73.4 °F 79% 29.74 in 5.0 mi Variable 1.2 mph - N/A Rain , Thunderstorm Light Thunderstorms and Rain
5:30 PM 78.8 °F - 77.0 °F 94% 29.74 in 5.0 mi East 5.8 mph - N/A Rain , Thunderstorm Light Thunderstorms and Rain
6:00 PM 78.8 °F - 75.2 °F 89% 29.77 in 5.0 mi ESE 3.5 mph - N/A Rain , Thunderstorm Light Thunderstorms and Rain
6:30 PM 78.8 °F - 75.2 °F 89% 29.77 in 5.0 mi WSW 3.5 mph - N/A Rain , Thunderstorm Light Thunderstorms and Rain
7:30 PM 78.8 °F - 77.0 °F 94% 29.80 in 5.0 mi WNW 2.3 mph - N/A   Mostly Cloudy
8:00 PM 80.6 °F 87.1 °F 77.0 °F 89% 29.80 in 5.0 mi West 3.5 mph - N/A   Mostly Cloudy
8:30 PM 80.6 °F 87.1 °F 77.0 °F 89% 29.83 in 5.0 mi WSW 6.9 mph - N/A   Mostly Cloudy
9:00 PM 78.8 °F - 75.2 °F 89% 29.83 in 5.6 mi WSW 8.1 mph - N/A   Scattered Clouds
9:30 PM 78.8 °F - 75.2 °F 89% 29.83 in 5.6 mi West 8.1 mph - N/A   Scattered Clouds
10:00 PM 78.8 °F - 75.2 °F 89% 29.86 in 5.6 mi WNW 8.1 mph - N/A   Scattered Clouds
10:30 PM 78.8 °F - 75.2 °F 89% 29.86 in 5.6 mi WSW 2.3 mph - N/A   Scattered Clouds
11:00 PM 78.8 °F - 75.2 °F 89% 29.83 in 5.6 mi West 2.3 mph - N/A   Scattered Clouds
11:30 PM 78.8 °F - 75.2 °F 89% 29.83 in 5.6 mi North 4.6 mph - N/A   Scattered Clouds